Tracking 30743 objects as of 22-Jun-2025
HD Live streaming from Space Station
objects crossing your sky now

STARLINK-5387

Track STARLINK-5387 now!
10-day predictions
STARLINK-5387 is classified as:


NORAD ID: 54842
Int'l Code: 2022-177Y
Perigee: 565.5 km
Apogee: 567.0 km
Inclination: 43.0 °
Period: 95.8 minutes
Semi major axis: 6937 km
RCS: Unknown
Launch date: December 28, 2022
Source: United States (US)
Launch site: AIR FORCE EASTERN TEST RANGE (AFETR)
Your satellite tracking list
Your tracking list is empty




NASA's NSSDC Master Catalog

Two Line Element Set (TLE):
1 54842U 22177Y   25172.51578992  .00000095  00000-0  22069-4 0  9992
2 54842  43.0038 111.9881 0001073 271.3293  88.7426 15.02534832137672
Source of the keplerian elements: AFSPC